| time (UTC) | temp F | wind direction | speed knots | gust knots | rain 1hr in | rain 24hr in | rain mn in | humidity % | barometer mb |
| 20260504070119 | 38 | 213 | 0.0 | 0.0 | 0.00 | 0.00 | 0.00 | 79 | 1017.3 |
| 20260504050508 | 41 | 240 | 1.7 | 1.7 | 0.00 | 0.00 | 0.00 | 66 | 1017.7 |
| 20260504050005 | 42 | 239 | 1.7 | 1.7 | 0.00 | 0.00 | 0.00 | 65 | 1017.4 |
| 20260504045500 | 42 | 246 | 0.9 | 1.7 | 0.00 | 0.00 | 0.00 | 64 | 1017.4 |
| 20260504044957 | 42 | 233 | 0.9 | 1.7 | 0.00 | 0.00 | 0.00 | 64 | 1017.5 |
| 20260504044454 | 42 | 224 | 1.7 | 2.6 | 0.00 | 0.00 | 0.00 | 65 | 1017.6 |
| 20260504043951 | 42 | 240 | 0.9 | 0.9 | 0.00 | 0.00 | 0.00 | 65 | 1017.5 |
| 20260504043448 | 42 | 241 | 0.9 | 2.6 | 0.00 | 0.00 | 0.00 | 64 | 1017.5 |
| 20260504042946 | 42 | 234 | 1.7 | 1.7 | 0.00 | 0.00 | 0.00 | 62 | 1017.7 |
| 20260504042442 | 43 | 246 | 0.9 | 1.7 | 0.00 | 0.00 | 0.00 | 61 | 1017.5 |
| 20260504041939 | 43 | 234 | 1.7 | 1.7 | 0.00 | 0.00 | 0.00 | 62 | 1017.6 |
| 20260504041435 | 42 | 233 | 1.7 | 2.6 | 0.00 | 0.00 | 0.00 | 62 | 1017.5 |
| 20260504040931 | 42 | 238 | 0.9 | 1.7 | 0.00 | 0.00 | 0.00 | 61 | 1017.6 |
| 20260504040429 | 42 | 243 | 0.9 | 0.9 | 0.00 | 0.00 | 0.00 | 62 | 1017.7 |
| 20260504035925 | 42 | 233 | 0.9 | 1.7 | 0.00 | 0.00 | 0.00 | 62 | 1017.6 |
| 20260504035423 | 43 | 237 | 0.0 | 0.0 | 0.00 | 0.00 | 0.00 | 59 | 1017.6 |
| 20260504034919 | 44 | 237 | 0.0 | 0.0 | 0.00 | 0.00 | 0.00 | 61 | 1017.5 |
| 20260504034417 | 44 | 237 | 0.0 | 0.0 | 0.00 | 0.00 | 0.00 | 57 | 1017.6 |
| 20260504033914 | 44 | 238 | 0.9 | 1.7 | 0.00 | 0.00 | 0.00 | 59 | 1017.5 |
| 20260504033412 | 44 | 241 | 0.9 | 1.7 | 0.00 | 0.00 | 0.00 | 58 | 1017.5 |
| 20260504032908 | 44 | 236 | 0.0 | 0.9 | 0.00 | 0.00 | 0.00 | 57 | 1017.4 |
| 20260504032405 | 44 | 238 | 0.9 | 0.9 | 0.00 | 0.00 | 0.00 | 57 | 1017.5 |
| 20260504031902 | 44 | 238 | 0.0 | 0.9 | 0.00 | 0.00 | 0.00 | 58 | 1017.5 |
| 20260504031359 | 44 | 242 | 0.9 | 1.7 | 0.00 | 0.00 | 0.00 | 59 | 1017.5 |
| 20260504030855 | 44 | 248 | 0.9 | 1.7 | 0.00 | 0.00 | 0.00 | 60 | 1017.6 |
| 20260504030353 | 45 | 233 | 0.0 | 0.0 | 0.00 | 0.00 | 0.00 | 57 | 1017.6 |
| 20260504025848 | 45 | 233 | 0.0 | 0.0 | 0.00 | 0.00 | 0.00 | 56 | 1017.6 |
| 20260504025345 | 45 | 240 | 0.0 | 0.9 | 0.00 | 0.00 | 0.00 | 58 | 1017.5 |
| 20260504024842 | 44 | 241 | 0.0 | 1.7 | 0.00 | 0.00 | 0.00 | 56 | 1017.4 |
| 20260504024339 | 44 | 233 | 0.0 | 0.9 | 0.00 | 0.00 | 0.00 | 60 | 1017.4 |
| 20260504023836 | 44 | 240 | 0.9 | 1.7 | 0.00 | 0.00 | 0.00 | 60 | 1017.5 |
| 20260504023333 | 44 | 239 | 0.9 | 1.7 | 0.00 | 0.00 | 0.00 | 60 | 1017.3 |
| 20260504022828 | 44 | 242 | 0.9 | 0.9 | 0.00 | 0.00 | 0.00 | 60 | 1017.3 |
| 20260504022325 | 45 | 245 | 0.9 | 1.7 | 0.00 | 0.00 | 0.00 | 60 | 1017.4 |
| 20260504021821 | 45 | 241 | 0.9 | 1.7 | 0.00 | 0.00 | 0.00 | 59 | 1017.5 |
| 20260504021319 | 45 | 239 | 0.9 | 1.7 | 0.00 | 0.00 | 0.00 | 58 | 1017.3 |
| 20260504020816 | 45 | 241 | 0.9 | 1.7 | 0.00 | 0.00 | 0.00 | 57 | 1017.3 |
| 20260504020313 | 45 | 238 | 0.9 | 1.7 | 0.00 | 0.00 | 0.00 | 57 | 1017.1 |
| 20260504015809 | 46 | 237 | 0.9 | 0.9 | 0.00 | 0.00 | 0.00 | 56 | 1017.3 |
| 20260504015305 | 46 | 239 | 0.9 | 1.7 | 0.00 | 0.00 | 0.00 | 56 | 1017.2 |
| 20260504014801 | 46 | 240 | 0.9 | 1.7 | 0.00 | 0.00 | 0.00 | 56 | 1017.0 |
| 20260504014257 | 47 | 240 | 0.9 | 1.7 | 0.00 | 0.00 | 0.00 | 54 | 1017.0 |
| 20260504013755 | 47 | 244 | 0.0 | 0.0 | 0.00 | 0.00 | 0.00 | 52 | 1017.1 |
| 20260504013253 | 48 | 244 | 0.0 | 0.0 | 0.00 | 0.00 | 0.00 | 51 | 1016.9 |
| 20260504012749 | 47 | 244 | 0.0 | 0.0 | 0.00 | 0.00 | 0.00 | 50 | 1016.8 |
| 20260504012247 | 47 | 244 | 0.0 | 0.9 | 0.00 | 0.00 | 0.00 | 52 | 1016.8 |
| 20260504011744 | 47 | 244 | 0.9 | 1.7 | 0.00 | 0.00 | 0.00 | 53 | 1016.9 |
| 20260504011240 | 48 | 247 | 0.9 | 0.9 | 0.00 | 0.00 | 0.00 | 55 | 1016.8 |
| 20260504010736 | 51 | 258 | 0.9 | 0.9 | 0.00 | 0.00 | 0.00 | 48 | 1016.8 |
| 20260504010232 | 52 | 275 | 0.0 | 0.9 | 0.00 | 0.00 | 0.00 | 41 | 1016.8 |
| 20260504005729 | 52 | 291 | 0.9 | 0.9 | 0.00 | 0.00 | 0.00 | 39 | 1017.0 |
| 20260504005226 | 52 | 310 | 0.0 | 0.0 | 0.00 | 0.00 | 0.00 | 40 | 1016.9 |
| 20260504004724 | 52 | 311 | 0.9 | 0.9 | 0.00 | 0.00 | 0.00 | 40 | 1016.7 |
| 20260504004220 | 53 | 321 | 0.0 | 0.0 | 0.00 | 0.00 | 0.00 | 41 | 1016.7 |
| 20260504003717 | 53 | 325 | 0.0 | 0.0 | 0.00 | 0.00 | 0.00 | 38 | 1016.6 |
| 20260504003214 | 54 | 325 | 1.7 | 1.7 | 0.00 | 0.00 | 0.00 | 36 | 1016.7 |
| 20260504002711 | 54 | 325 | 1.7 | 1.7 | 0.00 | 0.00 | 0.00 | 36 | 1016.6 |
| 20260504002208 | 54 | 344 | 1.7 | 1.7 | 0.00 | 0.00 | 0.00 | 35 | 1016.5 |
| 20260504001706 | 55 | 342 | 0.9 | 1.7 | 0.00 | 0.00 | 0.00 | 35 | 1016.4 |
| 20260504001202 | 55 | 351 | 1.7 | 1.7 | 0.00 | 0.00 | 0.00 | 37 | 1016.5 |
| 20260504000659 | 55 | 345 | 2.6 | 2.6 | 0.00 | 0.00 | 0.00 | 35 | 1016.5 |
| 20260504000156 | 55 | 337 | 2.6 | 2.6 | 0.00 | 0.00 | 0.00 | 34 | 1016.4 |
| 20260503235654 | 55 | 8 | 0.9 | 3.5 | 0.00 | 0.00 | 0.00 | 37 | 1016.4 |
| 20260503235151 | 56 | 4 | 2.6 | 2.6 | 0.00 | 0.00 | 0.00 | 34 | 1016.4 |
| 20260503234649 | 56 | 21 | 0.9 | 1.7 | 0.00 | 0.00 | 0.00 | 35 | 1016.3 |
| 20260503234147 | 56 | 12 | 3.5 | 7.0 | 0.00 | 0.00 | 0.00 | 32 | 1016.3 |
| 20260503233643 | 56 | 15 | 2.6 | 6.1 | 0.00 | 0.00 | 0.00 | 33 | 1016.4 |
| 20260503233139 | 56 | 340 | 2.6 | 5.2 | 0.00 | 0.00 | 0.00 | 33 | 1016.3 |
| 20260503232636 | 57 | 356 | 5.2 | 6.1 | 0.00 | 0.00 | 0.00 | 33 | 1016.4 |
| 20260503232133 | 58 | 334 | 4.3 | 7.0 | 0.00 | 0.00 | 0.00 | 34 | 1016.3 |
| 20260503231631 | 58 | 324 | 3.5 | 6.1 | 0.00 | 0.00 | 0.00 | 32 | 1016.1 |
| 20260503231127 | 58 | 29 | 2.6 | 6.1 | 0.00 | 0.00 | 0.00 | 32 | 1016.1 |
| 20260503230625 | 59 | 311 | 4.3 | 8.7 | 0.00 | 0.00 | 0.00 | 34 | 1016.4 |
| 20260503230122 | 58 | 22 | 5.2 | 7.0 | 0.00 | 0.00 | 0.00 | 31 | 1016.2 |
| 20260503225619 | 59 | 24 | 3.5 | 6.1 | 0.00 | 0.00 | 0.00 | 30 | 1016.2 |
| 20260503225119 | 60 | 31 | 4.3 | 7.0 | 0.00 | 0.00 | 0.00 | 30 | 1016.2 |
| 20260503224616 | 60 | 358 | 2.6 | 5.2 | 0.00 | 0.00 | 0.00 | 32 | 1016.2 |
| 20260503224114 | 59 | 43 | 3.5 | 9.6 | 0.00 | 0.00 | 0.00 | 34 | 1015.8 |
| 20260503223612 | 59 | 35 | 3.5 | 9.6 | 0.00 | 0.00 | 0.00 | 32 | 1016.0 |
| 20260503223107 | 60 | 356 | 2.6 | 7.0 | 0.00 | 0.00 | 0.00 | 33 | 1016.1 |
| 20260503222606 | 60 | 8 | 3.5 | 3.5 | 0.00 | 0.00 | 0.00 | 30 | 1016.2 |
| 20260503222103 | 60 | 22 | 2.6 | 5.2 | 0.00 | 0.00 | 0.00 | 29 | 1016.2 |
| 20260503221601 | 60 | 16 | 4.3 | 7.0 | 0.00 | 0.00 | 0.00 | 30 | 1016.2 |
| 20260503221058 | 60 | 345 | 7.0 | 7.8 | 0.00 | 0.00 | 0.00 | 29 | 1016.0 |
| 20260503220554 | 60 | 28 | 6.1 | 13.0 | 0.00 | 0.00 | 0.00 | 28 | 1016.3 |
| 20260503220052 | 60 | 340 | 6.1 | 13.9 | 0.00 | 0.00 | 0.00 | 31 | 1016.5 |
| 20260503215549 | 61 | 345 | 4.3 | 9.6 | 0.00 | 0.00 | 0.00 | 32 | 1016.0 |
| 20260503215046 | 61 | 355 | 3.5 | 5.2 | 0.00 | 0.00 | 0.00 | 29 | 1016.2 |
| 20260503214544 | 61 | 340 | 4.3 | 7.8 | 0.00 | 0.00 | 0.00 | 28 | 1016.2 |
| 20260503214040 | 60 | 49 | 7.0 | 11.3 | 0.00 | 0.00 | 0.00 | 28 | 1016.2 |
| 20260503213539 | 60 | 347 | 6.1 | 9.6 | 0.00 | 0.00 | 0.00 | 30 | 1016.0 |
| 20260503213035 | 60 | 43 | 8.7 | 9.6 | 0.00 | 0.00 | 0.00 | 29 | 1016.2 |
| 20260503212532 | 60 | 56 | 2.6 | 7.8 | 0.00 | 0.00 | 0.00 | 31 | 1016.1 |
| 20260503212030 | 60 | 16 | 3.5 | 12.2 | 0.00 | 0.00 | 0.00 | 33 | 1016.1 |
| 20260503211526 | 59 | 13 | 7.8 | 13.0 | 0.00 | 0.00 | 0.00 | 29 | 1016.1 |
| 20260503211022 | 60 | 44 | 5.2 | 7.8 | 0.00 | 0.00 | 0.00 | 30 | 1016.0 |
| 20260503210519 | 60 | 337 | 7.8 | 9.6 | 0.00 | 0.00 | 0.00 | 31 | 1016.5 |
| 20260503210015 | 60 | 2 | 8.7 | 11.3 | 0.00 | 0.00 | 0.00 | 28 | 1016.3 |
| 20260503205512 | 60 | 19 | 7.0 | 13.9 | 0.00 | 0.00 | 0.00 | 30 | 1016.4 |
| 20260503205008 | 60 | 351 | 5.2 | 11.3 | 0.00 | 0.00 | 0.00 | 29 | 1016.2 |
| 20260503204505 | 60 | 53 | 9.6 | 14.8 | 0.00 | 0.00 | 0.00 | 29 | 1016.1 |
| 20260503204001 | 60 | 22 | 7.0 | 9.6 | 0.00 | 0.00 | 0.00 | 31 | 1016.3 |
| 20260503203459 | 58 | 343 | 8.7 | 13.0 | 0.00 | 0.00 | 0.00 | 33 | 1016.6 |
| 20260503202955 | 59 | 56 | 7.0 | 13.0 | 0.00 | 0.00 | 0.00 | 30 | 1016.4 |
| 20260503202454 | 60 | 49 | 12.2 | 15.6 | 0.00 | 0.00 | 0.00 | 30 | 1016.2 |
| 20260503201952 | 60 | 5 | 4.3 | 9.6 | 0.00 | 0.00 | 0.00 | 34 | 1016.5 |
| 20260503201449 | 60 | 20 | 7.8 | 13.0 | 0.00 | 0.00 | 0.00 | 28 | 1016.3 |
| 20260503200947 | 59 | 22 | 5.2 | 13.0 | 0.00 | 0.00 | 0.00 | 32 | 1016.6 |
| 20260503200443 | 60 | 17 | 5.2 | 11.3 | 0.00 | 0.00 | 0.00 | 32 | 1016.8 |
| 20260503195940 | 60 | 332 | 11.3 | 13.9 | 0.00 | 0.00 | 0.00 | 32 | 1016.7 |
| 20260503195437 | 60 | 40 | 4.3 | 7.0 | 0.00 | 0.00 | 0.00 | 35 | 1016.7 |
| 20260503194933 | 58 | 326 | 6.1 | 12.2 | 0.00 | 0.00 | 0.00 | 33 | 1016.8 |
| 20260503194430 | 59 | 347 | 5.2 | 8.7 | 0.00 | 0.00 | 0.00 | 29 | 1016.8 |
| 20260503193926 | 59 | 46 | 2.6 | 6.1 | 0.00 | 0.00 | 0.00 | 30 | 1017.0 |
| 20260503193421 | 56 | 13 | 4.3 | 13.9 | 0.00 | 0.00 | 0.00 | 34 | 1017.0 |
| 20260503192917 | 56 | 64 | 4.3 | 9.6 | 0.00 | 0.00 | 0.00 | 35 | 1017.2 |
| 20260503192414 | 58 | 39 | 7.0 | 14.8 | 0.00 | 0.00 | 0.00 | 36 | 1017.0 |
| 20260503191909 | 59 | 211 | 1.7 | 5.2 | 0.00 | 0.00 | 0.00 | 36 | 1017.0 |
| 20260503191408 | 57 | 357 | 3.5 | 8.7 | 0.00 | 0.00 | 0.00 | 33 | 1017.0 |
| 20260503190903 | 56 | 47 | 2.6 | 6.1 | 0.00 | 0.00 | 0.00 | 32 | 1017.2 |
| 20260503190401 | 56 | 32 | 4.3 | 11.3 | 0.00 | 0.00 | 0.00 | 32 | 1017.3 |
| 20260503185857 | 57 | 356 | 3.5 | 9.6 | 0.00 | 0.00 | 0.00 | 32 | 1017.3 |
| 20260503185354 | 56 | 37 | 9.6 | 12.2 | 0.00 | 0.00 | 0.00 | 33 | 1017.3 |
| 20260503184854 | 57 | 58 | 7.0 | 9.6 | 0.00 | 0.00 | 0.00 | 35 | 1017.2 |
| 20260503184350 | 58 | 19 | 8.7 | 11.3 | 0.00 | 0.00 | 0.00 | 35 | 1017.7 |
| 20260503183846 | 57 | 352 | 7.8 | 9.6 | 0.00 | 0.00 | 0.00 | 33 | 1017.5 |
| 20260503183343 | 56 | 66 | 13.0 | 16.5 | 0.00 | 0.00 | 0.00 | 33 | 1017.5 |
| 20260503182840 | 56 | 48 | 5.2 | 8.7 | 0.00 | 0.00 | 0.00 | 35 | 1017.5 |
| 20260503182340 | 57 | 45 | 6.1 | 14.8 | 0.00 | 0.00 | 0.00 | 37 | 1017.6 |
| 20260503181836 | 56 | 332 | 4.3 | 11.3 | 0.00 | 0.00 | 0.00 | 37 | 1017.6 |
| 20260503181333 | 57 | 56 | 9.6 | 14.8 | 0.00 | 0.00 | 0.00 | 34 | 1017.7 |
| 20260503180829 | 56 | 12 | 5.2 | 20.0 | 0.00 | 0.00 | 0.00 | 34 | 1017.7 |
| 20260503180328 | 57 | 31 | 7.0 | 9.6 | 0.00 | 0.00 | 0.00 | 34 | 1017.8 |
| 20260503175824 | 55 | 56 | 8.7 | 9.6 | 0.00 | 0.00 | 0.00 | 35 | 1017.6 |
| 20260503175322 | 56 | 112 | 5.2 | 7.0 | 0.00 | 0.00 | 0.00 | 34 | 1017.8 |
| 20260503174817 | 56 | 26 | 7.0 | 9.6 | 0.00 | 0.00 | 0.00 | 32 | 1017.9 |
| 20260503174316 | 57 | 3 | 8.7 | 12.2 | 0.00 | 0.00 | 0.00 | 33 | 1018.0 |
| 20260503173811 | 55 | 60 | 3.5 | 9.6 | 0.00 | 0.00 | 0.00 | 33 | 1017.9 |
| 20260503173307 | 56 | 54 | 10.4 | 12.2 | 0.00 | 0.00 | 0.00 | 35 | 1018.0 |
| 20260503172804 | 55 | 357 | 11.3 | 13.9 | 0.00 | 0.00 | 0.00 | 33 | 1018.0 |
| 20260503172301 | 55 | 54 | 10.4 | 13.9 | 0.00 | 0.00 | 0.00 | 36 | 1018.0 |
| 20260503171757 | 54 | 57 | 9.6 | 12.2 | 0.00 | 0.00 | 0.00 | 37 | 1018.1 |
| 20260503171254 | 55 | 60 | 7.8 | 12.2 | 0.00 | 0.00 | 0.00 | 34 | 1018.1 |
| 20260503170752 | 55 | 28 | 5.2 | 7.0 | 0.00 | 0.00 | 0.00 | 35 | 1018.2 |
| 20260503170248 | 55 | 340 | 9.6 | 13.0 | 0.00 | 0.00 | 0.00 | 37 | 1018.3 |
| 20260503160210 | 51 | 54 | 9.6 | 9.6 | 0.00 | 0.00 | 0.00 | 42 | 1019.0 |
| 20260503150641 | 50 | 28 | 9.6 | 11.3 | 0.00 | 0.00 | 0.00 | 44 | 1019.6 |
| 20260503150136 | 49 | 62 | 7.8 | 9.6 | 0.00 | 0.00 | 0.00 | 46 | 1019.5 |
| 20260503131030 | 43 | 355 | 1.7 | 6.1 | 0.00 | 0.00 | 0.00 | 61 | 1019.8 |
| 20260503130527 | 42 | 320 | 1.7 | 5.2 | 0.00 | 0.00 | 0.00 | 61 | 1019.8 |
| 20260503110418 | 36 | 3 | 1.7 | 1.7 | 0.00 | 0.00 | 0.00 | 71 | 1019.3 |
| 20260503090320 | 36 | 37 | 0.9 | 1.7 | 0.00 | 0.00 | 0.00 | 71 | 1018.2 |
| 20260503081248 | 37 | 30 | 0.9 | 3.5 | 0.00 | 0.00 | 0.00 | 70 | 1018.1 |
| 20260503080743 | 37 | 2 | 3.5 | 5.2 | 0.00 | 0.00 | 0.00 | 69 | 1017.9 |
| 20260503080242 | 37 | 347 | 2.6 | 2.6 | 0.00 | 0.00 | 0.00 | 71 | 1017.9 |
| 20260503072718 | 38 | 9 | 0.9 | 1.7 | 0.00 | 0.00 | 0.00 | 71 | 1017.6 |
| 20260503072214 | 38 | 19 | 0.9 | 1.7 | 0.00 | 0.00 | 0.00 | 70 | 1017.6 |
| 20260503071711 | 39 | 28 | 1.7 | 2.6 | 0.00 | 0.00 | 0.00 | 69 | 1017.6 |